HST,Max TemperatureF,Mean TemperatureF,Min TemperatureF,Max Dew PointF,MeanDew PointF,Min DewpointF,Max Humidity, Mean Humidity, Min Humidity, Max Sea Level PressureIn, Mean Sea Level PressureIn, Min Sea Level PressureIn, Max VisibilityMiles, Mean VisibilityMiles, Min VisibilityMiles, Max Wind SpeedMPH, Mean Wind SpeedMPH, Max Gust SpeedMPH,PrecipitationIn, CloudCover, Events, WindDirDegrees
2010-12-1,82,75,67,68,66,65,100,79,58,30.14,30.08,30.02,10,8,2,13,5,17,2.38,6,Rain,246
2010-12-2,80,73,65,69,66,61,93,80,67,30.13,30.09,30.02,10,9,3,12,5,15,0.21,6,Rain,251
2010-12-3,76,71,66,66,64,61,93,79,64,30.10,30.07,30.04,10,9,2,22,8,26,1.01,8,Rain,159
2010-12-4,79,72,65,65,62,59,93,76,58,30.11,30.08,30.03,10,10,10,21,6,24,0.06,6,Rain,229
2010-12-5,79,71,63,64,60,56,84,66,48,30.08,30.03,29.97,10,10,10,13,7,18,0.01,4,Rain,204
2010-12-6,79,70,60,61,58,50,87,68,48,30.06,30.02,29.95,10,10,10,15,8,18,0.00,2,,205
2010-12-7,79,70,61,63,58,49,90,71,52,30.05,30.01,29.94,10,10,10,15,8,18,0.00,3,,195
2010-12-8,80,71,62,68,61,51,81,65,49,30.01,29.97,29.89,10,10,10,16,8,20,0.00,2,,188
2010-12-9,85,76,66,68,65,59,87,71,55,29.97,29.92,29.86,10,10,10,21,9,28,T,3,,164
2010-12-10,75,72,68,68,65,59,84,76,68,30.03,29.96,29.88,10,9,2,18,8,23,0.39,6,Rain,359
2010-12-11,80,72,63,70,64,59,87,76,64,30.00,29.95,29.89,10,10,6,13,5,16,0.04,4,Rain,260
2010-12-12,81,73,64,70,64,56,84,74,64,30.00,29.97,29.91,10,10,10,12,6,13,0.00,4,,229
2010-12-13,83,75,66,71,66,61,93,79,65,30.04,29.98,29.91,10,10,10,17,7,23,0.04,4,Rain,178
2010-12-14,81,74,66,71,66,58,87,75,62,30.08,30.03,29.97,10,10,10,14,6,17,T,5,Rain,195
2010-12-15,81,73,64,65,61,54,81,70,58,30.07,30.02,29.95,10,10,10,14,7,23,0.00,3,,194
2010-12-16,81,74,66,66,61,54,81,70,58,30.01,29.96,29.89,10,10,10,15,8,20,0.00,4,,197
2010-12-17,81,73,64,64,59,53,81,66,51,29.98,29.94,29.87,10,10,10,14,8,22,0.00,4,,198
2010-12-18,81,72,62,68,62,50,74,66,58,29.95,29.91,29.86,10,10,10,15,8,20,0.00,5,Rain,179
2010-12-19,83,76,68,69,66,60,90,74,58,29.93,29.86,29.78,10,10,10,21,9,26,T,6,Rain,162
2010-12-20,81,75,68,71,68,65,93,81,69,29.92,29.88,29.83,10,10,10,16,5,21,0.04,7,Rain,166
2010-12-21,76,73,70,72,69,68,97,90,82,29.98,29.93,29.89,10,9,2,10,3,14,0.03,7,Rain,190
2010-12-22,77,73,69,72,70,68,97,87,76,29.97,29.93,29.88,10,10,7,12,4,14,0.10,7,Rain,153
2010-12-23,81,75,69,72,69,67,97,83,69,29.99,29.94,29.90,10,10,10,9,4,13,T,6,Rain-Thunderstorm,154
2010-12-24,82,73,64,72,68,63,93,81,69,29.97,29.93,29.87,10,10,10,16,5,21,0.00,3,Thunderstorm,140
2010-12-25,83,74,64,69,67,62,93,76,58,29.95,29.91,29.83,10,10,10,22,7,29,0.00,2,,166
2010-12-26,84,75,65,67,65,62,93,74,55,29.96,29.91,29.86,10,10,10,18,8,23,0.00,2,,164
2010-12-27,82,74,66,70,67,61,87,73,58,30.03,29.96,29.89,10,10,10,23,9,32,0.12,5,Rain,160
2010-12-28,81,75,69,71,67,63,93,78,62,30.08,30.03,29.98,10,10,7,17,6,22,0.18,5,Rain,191
2010-12-29,83,75,67,70,67,63,93,76,58,30.10,30.05,29.97,10,9,3,17,7,24,0.37,7,Rain,182
2010-12-30,80,74,67,68,65,61,93,74,54,30.09,30.05,29.98,10,10,7,14,6,17,0.27,6,Rain,217
2010-12-31,76,70,64,70,66,61,93,86,79,30.10,30.01,29.93,10,9,2,12,5,14,0.23,8,Rain,223